TimeAKST,TemperatureF,Dew PointF,Humidity,Sea Level PressureIn,VisibilityMPH,Wind Direction,Wind SpeedMPH,Gust SpeedMPH,PrecipitationIn,Events,Conditions,WindDirDegrees,DateUTC
12:16 AM,6.8,-11.2,44,29.72,10.0,SSW,5.8,-,N/A,,Mostly Cloudy,200,2013-02-26 09:16:00
12:36 AM,3.2,-11.2,51,29.72,10.0,South,5.8,-,N/A,,Mostly Cloudy,170,2013-02-26 09:36:00
12:56 AM,3.2,-9.4,56,29.73,10.0,SSW,5.8,-,N/A,,Clear,210,2013-02-26 09:56:00
1:16 AM,1.4,-9.4,61,29.73,10.0,South,4.6,-,N/A,,Clear,170,2013-02-26 10:16:00
1:36 AM,1.4,-9.4,61,29.74,10.0,SSW,5.8,-,N/A,,Clear,200,2013-02-26 10:36:00
1:56 AM,-0.4,-7.6,72,29.74,10.0,South,4.6,-,N/A,,Partly Cloudy,180,2013-02-26 10:56:00
2:16 AM,1.4,-5.8,72,29.73,10.0,SSW,5.8,-,N/A,,Partly Cloudy,200,2013-02-26 11:16:00
2:36 AM,1.4,-7.6,66,29.73,10.0,SSW,6.9,-,N/A,,Clear,200,2013-02-26 11:36:00
3:16 AM,-0.4,-7.6,72,29.73,10.0,SW,5.8,-,N/A,,Clear,230,2013-02-26 12:16:00
3:36 AM,-0.4,-4.0,85,29.73,10.0,South,6.9,-,N/A,,Clear,190,2013-02-26 12:36:00
3:56 AM,-0.4,-7.6,72,29.73,10.0,South,6.9,-,N/A,,Clear,180,2013-02-26 12:56:00
4:16 AM,1.4,-4.0,78,29.73,10.0,South,8.1,-,N/A,,Partly Cloudy,180,2013-02-26 13:16:00
4:36 AM,1.4,-7.6,66,29.73,10.0,South,5.8,-,N/A,,Clear,190,2013-02-26 13:36:00
4:56 AM,1.4,-2.2,85,29.73,10.0,SSW,8.1,-,N/A,,Clear,200,2013-02-26 13:56:00
5:16 AM,1.4,-25.6,27,29.73,10.0,SSW,6.9,-,N/A,,Clear,200,2013-02-26 14:16:00
5:36 AM,-0.4,-27.4,27,29.73,10.0,SSW,5.8,-,N/A,,Clear,210,2013-02-26 14:36:00
5:56 AM,-2.2,-25.6,32,29.73,10.0,SSW,8.1,-,N/A,,Clear,200,2013-02-26 14:56:00
6:16 AM,-0.4,-23.8,32,29.73,10.0,South,8.1,-,N/A,,Clear,190,2013-02-26 15:16:00
6:36 AM,-0.4,-20.2,39,29.73,10.0,South,4.6,-,N/A,,Clear,190,2013-02-26 15:36:00
6:56 AM,-0.4,-20.2,39,29.73,10.0,SSW,4.6,-,N/A,,Partly Cloudy,200,2013-02-26 15:56:00
7:16 AM,-0.4,-18.4,43,29.73,10.0,SW,3.5,-,N/A,,Mostly Cloudy,220,2013-02-26 16:16:00
7:36 AM,-0.4,-16.6,46,29.73,10.0,SSW,4.6,-,N/A,,Partly Cloudy,200,2013-02-26 16:36:00
7:56 AM,-0.4,-14.8,51,29.72,10.0,South,6.9,-,N/A,,Clear,190,2013-02-26 16:56:00
8:16 AM,-0.4,-13.0,55,29.72,10.0,SSW,3.5,-,N/A,,Clear,200,2013-02-26 17:16:00
8:36 AM,-0.4,-14.8,51,29.72,10.0,Calm,Calm,-,N/A,,Clear,0,2013-02-26 17:36:00
8:56 AM,-0.4,-13.0,55,29.72,10.0,SSW,4.6,-,N/A,,Clear,210,2013-02-26 17:56:00
9:16 AM,-2.2,-11.2,66,29.72,8.0,Calm,Calm,-,N/A,,Clear,0,2013-02-26 18:16:00
9:36 AM,-0.4,-9.4,66,29.72,8.0,Calm,Calm,-,N/A,,Clear,0,2013-02-26 18:36:00
9:56 AM,1.4,-9.4,61,29.73,10.0,NNE,12.7,-,N/A,,Clear,30,2013-02-26 18:56:00
10:16 AM,3.2,-14.8,43,29.73,10.0,NE,11.5,-,N/A,,Clear,50,2013-02-26 19:16:00
10:36 AM,1.4,-27.4,25,29.74,10.0,NE,9.2,-,N/A,,Clear,50,2013-02-26 19:36:00
10:56 AM,1.4,-23.8,30,29.74,10.0,NE,12.7,-,N/A,,Clear,50,2013-02-26 19:56:00
11:16 AM,1.4,-22.0,33,29.74,10.0,NE,11.5,-,N/A,,Clear,40,2013-02-26 20:16:00
11:36 AM,1.4,-18.4,39,29.75,10.0,NNE,10.4,-,N/A,,Clear,30,2013-02-26 20:36:00
11:56 AM,1.4,-18.4,39,29.75,10.0,NNE,8.1,-,N/A,,Clear,20,2013-02-26 20:56:00
12:16 PM,-0.4,-18.4,43,29.75,10.0,North,8.1,-,N/A,,Clear,360,2013-02-26 21:16:00
12:36 PM,1.4,-16.6,43,29.76,10.0,NE,10.4,-,N/A,,Clear,40,2013-02-26 21:36:00
12:56 PM,1.4,-14.8,47,29.76,10.0,NE,11.5,-,N/A,,Clear,40,2013-02-26 21:56:00
1:16 PM,-0.4,-14.8,51,29.76,10.0,NE,11.5,-,N/A,,Clear,40,2013-02-26 22:16:00
1:36 PM,-0.4,-14.8,51,29.76,10.0,NNE,10.4,-,N/A,,Clear,30,2013-02-26 22:36:00
1:56 PM,-0.4,-13.0,55,29.76,10.0,NE,10.4,-,N/A,,Clear,40,2013-02-26 22:56:00
2:16 PM,-0.4,-11.2,60,29.76,10.0,North,6.9,-,N/A,,Clear,10,2013-02-26 23:16:00
2:36 PM,-0.4,-13.0,55,29.75,10.0,NE,12.7,16.1,N/A,,Clear,40,2013-02-26 23:36:00
2:56 PM,-0.4,-9.4,66,29.75,10.0,NNE,6.9,-,N/A,,Clear,20,2013-02-26 23:56:00
3:16 PM,-2.2,-13.0,60,29.75,10.0,NNE,9.2,-,N/A,,Clear,20,2013-02-27 00:16:00
3:36 PM,-2.2,-11.2,66,29.75,10.0,NNE,8.1,-,N/A,,Clear,30,2013-02-27 00:36:00
3:56 PM,-2.2,-9.4,71,29.74,10.0,NE,9.2,-,N/A,,Clear,40,2013-02-27 00:56:00
4:16 PM,-0.4,-9.4,66,29.74,10.0,NNE,8.1,-,N/A,,Clear,30,2013-02-27 01:16:00
4:36 PM,-0.4,-11.2,60,29.73,10.0,NE,11.5,-,N/A,,Clear,50,2013-02-27 01:36:00
4:56 PM,-0.4,-9.4,66,29.73,10.0,NE,12.7,-,N/A,,Clear,50,2013-02-27 01:56:00
5:16 PM,-2.2,-11.2,66,29.73,10.0,NNE,6.9,-,N/A,,Clear,20,2013-02-27 02:16:00
5:36 PM,-5.8,-16.6,60,29.72,10.0,North,6.9,-,N/A,,Clear,360,2013-02-27 02:36:00
5:56 PM,-5.8,-14.8,65,29.72,10.0,North,6.9,-,N/A,,Clear,10,2013-02-27 02:56:00
6:16 PM,-5.8,-14.8,65,29.72,9.0,North,8.1,-,N/A,,Clear,10,2013-02-27 03:16:00
6:36 PM,-7.6,-16.6,65,29.71,7.0,North,6.9,-,N/A,,Clear,10,2013-02-27 03:36:00
6:56 PM,-7.6,-14.8,71,29.71,10.0,North,10.4,-,N/A,,Clear,10,2013-02-27 03:56:00
7:16 PM,-7.6,-18.4,59,29.71,10.0,North,8.1,-,N/A,,Clear,10,2013-02-27 04:16:00
7:36 PM,-9.4,-18.4,65,29.70,10.0,North,8.1,-,N/A,,Clear,10,2013-02-27 04:36:00
7:56 PM,-9.4,-16.6,71,29.69,10.0,NNE,10.4,-,N/A,,Clear,20,2013-02-27 04:56:00
8:16 PM,-9.4,-16.6,71,29.69,10.0,NNE,9.2,-,N/A,,Clear,20,2013-02-27 05:16:00
8:36 PM,-9.4,-16.6,71,29.69,10.0,North,9.2,-,N/A,,Clear,10,2013-02-27 05:36:00
8:56 PM,-9.4,-18.4,65,29.68,10.0,NNE,8.1,-,N/A,,Clear,20,2013-02-27 05:56:00
9:16 PM,-9.4,-16.6,71,29.68,10.0,NNE,10.4,-,N/A,,Clear,20,2013-02-27 06:16:00
9:36 PM,-9.4,-18.4,65,29.68,10.0,North,8.1,-,N/A,,Clear,10,2013-02-27 06:36:00
9:56 PM,-9.4,-18.4,65,29.68,9.0,North,6.9,-,N/A,,Clear,10,2013-02-27 06:56:00
10:16 PM,-9.4,-20.2,59,29.67,10.0,NNE,6.9,-,N/A,,Clear,20,2013-02-27 07:16:00
10:36 PM,-9.4,-18.4,65,29.67,10.0,North,8.1,-,N/A,,Clear,360,2013-02-27 07:36:00
10:56 PM,-11.2,-18.4,70,29.67,10.0,North,5.8,-,N/A,,Clear,10,2013-02-27 07:56:00
11:16 PM,-11.2,-23.8,54,29.66,10.0,North,3.5,-,N/A,,Clear,10,2013-02-27 08:16:00
11:36 PM,-11.2,-20.2,64,29.65,10.0,NNE,6.9,-,N/A,,Clear,20,2013-02-27 08:36:00
11:56 PM,-11.2,-18.4,70,29.65,10.0,North,6.9,-,N/A,,Clear,10,2013-02-27 08:56:00